User: anonymous   Login
Location: Coffee Creek Observatory
(38.8077°N, 94.7179°W)
Time: 04:21:43
(UTC-05:00)
Language:

Lacrosse 4 Rocket - Orbit

View from above orbital plane
View from above orbital plane
View from above satellite
View from above satellite

Ground track
Ground track

The orbit data is extracted from the following two-line orbital elements,

1 26474U 00047B   14295.45841669  .00003504  00000-0  33208-3 0  7740
2 26474 067.9976 354.0437 0064592 304.5980 054.9078 14.93247815770607
Epoch (UTC): 22 October 2014 11:00:07
Eccentricity: 0.0064592
inclination: 67.9976°
perigee height: 543 km
apogee height: 633 km
right ascension of ascending node: 354.0437°
argument of perigee: 304.5980°
revolutions per day: 14.93247815
mean anomaly at epoch: 54.9078°
orbit number at epoch: 77060

The dashed part of the orbit path shows where the satellite is in the earth's shadow,  

DLR